�������l�o���
Date,Time,MP-1(��Sv/h),MP-2(��Sv/h),MP-3(��Sv/h),MP-4(��Sv/h),MP-5(��Sv/h),MP-6(��Sv/h),MP-7(��Sv/h),MP-8(��Sv/h),����,����(m/s),���J
2023/08/29,00:00,0.554,0.839,0.514,1.047,0.760,0.329,0.588,0.542,�k�k��,4.0,��
2023/08/29,00:10,0.556,0.837,0.512,1.046,0.761,0.329,0.588,0.543,�k�k��,3.3,��
2023/08/29,00:20,0.556,0.837,0.512,1.043,0.761,0.329,0.588,0.543,�k�k��,2.8,��
2023/08/29,00:30,0.556,0.838,0.512,1.047,0.760,0.330,0.588,0.542,�k�k��,2.3,��
2023/08/29,00:40,0.555,0.837,0.513,1.046,0.760,0.330,0.589,0.543,�k�k��,1.9,��
2023/08/29,00:50,0.555,0.840,0.512,1.047,0.761,0.330,0.587,0.542,�k�k��,2.8,��
2023/08/29,01:00,0.555,0.838,0.512,1.045,0.760,0.330,0.589,0.544,�k�k��,2.8,��
2023/08/29,01:10,0.554,0.838,0.511,1.046,0.760,0.329,0.587,0.543,�k�k��,2.9,�L
2023/08/29,01:20,0.556,0.839,0.511,1.045,0.759,0.329,0.587,0.541,�k��,3.4,�L
2023/08/29,01:30,0.555,0.837,0.513,1.044,0.758,0.329,0.589,0.543,�k�k��,2.9,�L
2023/08/29,01:40,0.556,0.837,0.512,1.044,0.759,0.328,0.587,0.542,�k��,3.4,�L
2023/08/29,01:50,0.555,0.836,0.513,1.044,0.759,0.329,0.587,0.543,�k�k��,4.2,��
2023/08/29,02:00,0.555,0.838,0.514,1.044,0.759,0.329,0.589,0.544,�k�k��,3.2,��
2023/08/29,02:10,0.557,0.836,0.513,1.045,0.760,0.330,0.589,0.543,�k�k��,3.7,�L
2023/08/29,02:20,0.556,0.837,0.511,1.043,0.759,0.329,0.589,0.543,�k�k��,3.2,�L
2023/08/29,02:30,0.555,0.835,0.511,1.047,0.760,0.329,0.589,0.543,�k�k��,3.0,��
2023/08/29,02:40,0.555,0.838,0.513,1.044,0.759,0.330,0.589,0.543,�k�k��,3.4,��
2023/08/29,02:50,0.555,0.838,0.511,1.046,0.761,0.328,0.587,0.542,�k��,3.8,��
2023/08/29,03:00,0.556,0.839,0.512,1.046,0.759,0.328,0.590,0.543,�k�k��,3.9,��
2023/08/29,03:10,0.557,0.839,0.509,1.045,0.760,0.329,0.589,0.543,�k�k��,3.4,��
2023/08/29,03:20,0.557,0.838,0.513,1.045,0.758,0.330,0.589,0.543,�k��,3.4,��
2023/08/29,03:30,0.557,0.839,0.511,1.045,0.760,0.329,0.588,0.543,�k�k��,3.4,��
2023/08/29,03:40,0.556,0.837,0.510,1.045,0.761,0.330,0.587,0.543,�k�k��,3.2,��
2023/08/29,03:50,0.556,0.837,0.511,1.045,0.761,0.329,0.589,0.544,�k�k��,3.4,��
2023/08/29,04:00,0.555,0.839,0.512,1.045,0.761,0.330,0.590,0.543,�k�k��,3.8,��
2023/08/29,04:10,0.558,0.839,0.512,1.045,0.759,0.329,0.589,0.542,�k�k��,3.9,��
2023/08/29,04:20,0.555,0.838,0.511,1.045,0.760,0.329,0.588,0.543,�k�k��,3.7,��
2023/08/29,04:30,0.556,0.837,0.512,1.043,0.760,0.329,0.587,0.544,�k�k��,4.0,��
2023/08/29,04:40,0.554,0.840,0.511,1.046,0.757,0.329,0.587,0.543,�k�k��,3.7,��
2023/08/29,04:50,0.555,0.837,0.512,1.045,0.759,0.328,0.587,0.542,�k�k��,4.1,��
2023/08/29,05:00,0.556,0.839,0.511,1.045,0.759,0.330,0.589,0.543,�k�k��,3.8,��
2023/08/29,05:10,0.557,0.838,0.511,1.045,0.759,0.329,0.588,0.543,�k�k��,3.5,��
2023/08/29,05:20,0.557,0.838,0.513,1.044,0.758,0.330,0.590,0.542,�k�k��,2.6,��
2023/08/29,05:30,0.556,0.838,0.511,1.046,0.760,0.330,0.587,0.543,�k�k��,3.3,��
2023/08/29,05:40,0.556,0.837,0.513,1.045,0.760,0.328,0.587,0.543,�k�k��,3.5,��
2023/08/29,05:50,0.556,0.837,0.512,1.046,0.758,0.329,0.588,0.543,�k�k��,3.4,��
2023/08/29,06:00,0.557,0.838,0.511,1.046,0.759,0.329,0.588,0.544,�k�k��,3.0,��
2023/08/29,06:10,0.556,0.838,0.511,1.046,0.760,0.329,0.589,0.544,�k�k��,2.6,��
2023/08/29,06:20,0.556,0.838,0.512,1.046,0.759,0.329,0.587,0.544,�k�k��,2.6,��
2023/08/29,06:30,0.556,0.838,0.512,1.045,0.760,0.330,0.588,0.542,�k�k��,3.0,��
2023/08/29,06:40,0.557,0.836,0.511,1.047,0.757,0.329,0.589,0.543,�k�k��,2.5,��
2023/08/29,06:50,0.555,0.838,0.510,1.045,0.759,0.329,0.589,0.543,�k�k��,2.2,��
2023/08/29,07:00,0.556,0.838,0.512,1.044,0.759,0.328,0.587,0.542,�k�k��,1.7,��
2023/08/29,07:10,0.556,0.836,0.512,1.046,0.759,0.330,0.588,0.544,�k�k��,2.0,��
2023/08/29,07:20,0.556,0.835,0.512,1.045,0.758,0.329,0.588,0.544,�k��,2.3,��
2023/08/29,07:30,0.555,0.836,0.512,1.046,0.757,0.328,0.589,0.544,�k�k��,2.3,��
2023/08/29,07:40,0.554,0.836,0.512,1.045,0.757,0.329,0.589,0.543,�k,1.7,��
2023/08/29,07:50,0.555,0.837,0.511,1.044,0.756,0.329,0.588,0.545,�k�k��,2.3,��
2023/08/29,08:00,0.555,0.838,0.511,1.046,0.757,0.330,0.587,0.543,�k�k��,2.2,��
2023/08/29,08:10,0.555,0.836,0.511,1.046,0.758,0.329,0.590,0.543,�k�k��,2.6,��
2023/08/29,08:20,0.555,0.835,0.509,1.046,0.757,0.329,0.590,0.543,�k�k��,2.6,��
2023/08/29,08:30,0.555,0.835,0.513,1.045,0.758,0.329,0.590,0.543,�k�k��,2.2,��
2023/08/29,08:40,0.554,0.835,0.512,1.046,0.755,0.328,0.591,0.542,�k��,2.0,��
2023/08/29,08:50,0.554,0.837,0.512,1.044,0.758,0.328,0.589,0.541,�k�k��,2.9,��
2023/08/29,09:00,0.554,0.835,0.511,1.046,0.759,0.328,0.589,0.541,�k�k��,2.8,��
2023/08/29,09:10,0.554,0.837,0.510,1.044,0.757,0.328,0.588,0.542,�k�k��,3.1,��
2023/08/29,09:20,0.553,0.836,0.511,1.047,0.758,0.329,0.587,0.542,�k�k��,3.6,��
2023/08/29,09:30,0.554,0.836,0.510,1.048,0.758,0.327,0.588,0.542,�k�k��,3.2,��
2023/08/29,09:40,0.554,0.836,0.511,1.046,0.759,0.327,0.588,0.541,�k��,3.7,��
2023/08/29,09:50,0.556,0.836,0.512,1.047,0.759,0.328,0.585,0.541,�k��,2.6,��
2023/08/29,10:00,0.555,0.838,0.513,1.045,0.759,0.326,0.587,0.543,�k�k��,3.1,��
2023/08/29,10:10,0.555,0.836,0.512,1.045,0.761,0.328,0.587,0.542,�k��,2.9,��
2023/08/29,10:20,0.555,0.837,0.512,1.044,0.761,0.327,0.587,0.543,�k��,3.1,��
2023/08/29,10:30,0.555,0.838,0.512,1.047,0.761,0.326,0.586,0.542,�k��,3.0,��
2023/08/29,10:40,0.555,0.837,0.513,1.043,0.758,0.327,0.587,0.542,�k��,3.2,��
2023/08/29,10:50,0.555,0.836,0.513,1.046,0.759,0.329,0.589,0.541,�k��,2.6,��
2023/08/29,11:00,0.555,0.840,0.513,1.045,0.759,0.327,0.588,0.543,�k��,2.6,��
2023/08/29,11:10,0.556,0.838,0.512,1.046,0.759,0.329,0.589,0.544,���k��,2.9,��
2023/08/29,11:20,0.556,0.838,0.515,1.044,0.761,0.329,0.587,0.544,��,2.3,��
2023/08/29,11:30,0.554,0.839,0.513,1.047,0.760,0.329,0.588,0.543,��,2.6,��
2023/08/29,11:40,0.557,0.841,0.512,1.047,0.760,0.327,0.589,0.545,���k��,2.5,��
2023/08/29,11:50,0.557,0.839,0.515,1.047,0.761,0.328,0.587,0.543,���k��,2.5,��
2023/08/29,12:00,0.556,0.841,0.513,1.047,0.761,0.328,0.587,0.544,��,2.5,��
2023/08/29,12:10,0.558,0.842,0.515,1.047,0.760,0.329,0.588,0.543,���k��,2.8,��
2023/08/29,12:20,0.557,0.840,0.513,1.047,0.762,0.327,0.589,0.543,���k��,2.5,��
2023/08/29,12:30,0.557,0.841,0.515,1.048,0.762,0.327,0.588,0.543,���k��,2.6,��
2023/08/29,12:40,0.559,0.840,0.515,1.044,0.763,0.327,0.589,0.544,���k��,2.3,��
2023/08/29,12:50,0.558,0.842,0.514,1.046,0.764,0.328,0.589,0.543,��,3.5,��
2023/08/29,13:00,0.556,0.841,0.514,1.046,0.762,0.328,0.591,0.545,���k��,3.3,��
2023/08/29,13:10,0.558,0.840,0.514,1.046,0.763,0.328,0.588,0.544,���k��,3.0,��
2023/08/29,13:20,0.559,0.840,0.512,1.047,0.762,0.328,0.591,0.543,��,3.0,��
2023/08/29,13:30,0.559,0.841,0.515,1.046,0.763,0.328,0.590,0.545,���k��,2.9,��
2023/08/29,13:40,0.557,0.839,0.516,1.046,0.763,0.328,0.590,0.544,��,2.9,��
2023/08/29,13:50,0.557,0.838,0.514,1.048,0.762,0.328,0.589,0.544,��,3.1,��
2023/08/29,14:00,0.558,0.840,0.514,1.048,0.762,0.329,0.589,0.546,��,2.8,��
2023/08/29,14:10,0.558,0.840,0.514,1.048,0.760,0.329,0.590,0.544,��,2.2,��
2023/08/29,14:20,0.545,0.839,0.515,1.046,0.761,0.331,0.590,0.545,���쓌,2.8,��
2023/08/29,14:30,0.552,0.841,0.513,1.047,0.760,0.330,0.591,0.544,���쓌,2.9,��
2023/08/29,14:40,0.551,0.841,0.513,1.048,0.761,0.328,0.589,0.545,���쓌,3.0,��
2023/08/29,14:50,0.553,0.842,0.513,1.048,0.762,0.329,0.591,0.544,���쓌,3.3,��
2023/08/29,15:00,0.555,0.841,0.514,1.049,0.764,0.329,0.589,0.543,���쓌,2.8,��
2023/08/29,15:10,0.555,0.840,0.513,1.045,0.760,0.330,0.590,0.542,���쓌,3.2,��
2023/08/29,15:20,0.552,0.840,0.513,1.047,0.762,0.330,0.588,0.543,���쓌,2.3,��
2023/08/29,15:30,0.556,0.842,0.512,1.042,0.761,0.330,0.589,0.542,�쓌,2.6,��
2023/08/29,15:40,0.554,0.840,0.512,1.048,0.761,0.329,0.588,0.542,�쓌,3.2,��
2023/08/29,15:50,0.554,0.841,0.514,1.046,0.761,0.329,0.588,0.541,���쓌,2.5,��
2023/08/29,16:00,0.553,0.838,0.515,1.047,0.762,0.328,0.589,0.542,�쓌,2.9,��
2023/08/29,16:10,0.554,0.840,0.514,1.046,0.763,0.327,0.589,0.542,�쓌,3.9,��
2023/08/29,16:20,0.554,0.839,0.512,1.046,0.760,0.329,0.588,0.543,��쓌,2.6,��
2023/08/29,16:30,0.554,0.841,0.513,1.048,0.761,0.328,0.588,0.542,�쓌,1.4,��
2023/08/29,16:40,0.552,0.837,0.514,1.048,0.761,0.331,0.589,0.542,�쓌,3.2,��
2023/08/29,16:50,0.554,0.840,0.513,1.048,0.761,0.330,0.590,0.542,�쓌,3.2,��
2023/08/29,17:00,0.554,0.840,0.513,1.049,0.762,0.328,0.588,0.542,�쓌,2.8,��
2023/08/29,17:10,0.555,0.838,0.513,1.048,0.761,0.329,0.590,0.541,��쓌,3.8,��
2023/08/29,17:20,0.553,0.839,0.513,1.050,0.760,0.329,0.588,0.542,��쓌,3.2,��
2023/08/29,17:30,0.553,0.841,0.512,1.049,0.760,0.330,0.589,0.541,��쓌,3.4,��
2023/08/29,17:40,0.553,0.839,0.511,1.051,0.760,0.328,0.587,0.542,��쓌,3.2,��
2023/08/29,17:50,0.554,0.840,0.512,1.051,0.762,0.327,0.588,0.543,��쓌,3.1,��
2023/08/29,18:00,0.553,0.839,0.512,1.047,0.761,0.329,0.587,0.543,��쓌,4.0,��
2023/08/29,18:10,0.555,0.840,0.513,1.045,0.758,0.329,0.588,0.543,��쓌,3.9,��
2023/08/29,18:20,0.553,0.840,0.513,1.045,0.759,0.327,0.589,0.544,��,3.4,��
2023/08/29,18:30,0.553,0.840,0.512,1.048,0.760,0.329,0.589,0.540,��쓌,3.5,��
2023/08/29,18:40,0.555,0.840,0.511,1.045,0.760,0.329,0.589,0.544,��쓌,3.3,��
2023/08/29,18:50,0.556,0.839,0.511,1.045,0.759,0.328,0.588,0.544,��쓌,2.6,��
2023/08/29,19:00,0.553,0.840,0.511,1.046,0.759,0.328,0.589,0.540,��쓌,2.8,��
2023/08/29,19:10,0.556,0.841,0.511,1.046,0.760,0.329,0.589,0.543,��쓌,3.9,��
2023/08/29,19:20,0.555,0.840,0.511,1.045,0.760,0.327,0.589,0.542,��쓌,4.3,��
2023/08/29,19:30,0.554,0.841,0.512,1.048,0.759,0.330,0.589,0.542,��쓌,4.0,��
2023/08/29,19:40,0.554,0.840,0.512,1.047,0.762,0.329,0.588,0.542,��쓌,3.8,��
2023/08/29,19:50,0.554,0.841,0.511,1.044,0.759,0.329,0.585,0.544,��쓌,3.1,��
2023/08/29,20:00,0.553,0.842,0.513,1.045,0.762,0.328,0.588,0.542,��쓌,2.3,��
2023/08/29,20:10,0.555,0.839,0.512,1.046,0.762,0.329,0.589,0.543,��쓌,3.1,��
2023/08/29,20:20,0.555,0.840,0.512,1.045,0.761,0.329,0.589,0.542,��쓌,1.5,��
2023/08/29,20:30,0.555,0.841,0.512,1.047,0.762,0.329,0.590,0.543,��쓌,3.1,��
2023/08/29,20:40,0.555,0.842,0.512,1.046,0.762,0.330,0.588,0.543,��쓌,3.5,��
2023/08/29,20:50,0.553,0.842,0.514,1.048,0.761,0.329,0.590,0.543,��쓌,4.1,��
2023/08/29,21:00,0.554,0.840,0.514,1.047,0.761,0.330,0.588,0.542,��쓌,4.5,��
2023/08/29,21:10,0.554,0.839,0.514,1.048,0.759,0.329,0.589,0.544,��,3.4,��
2023/08/29,21:20,0.553,0.842,0.512,1.045,0.759,0.329,0.587,0.542,��,4.4,��
2023/08/29,21:30,0.555,0.842,0.513,1.046,0.761,0.331,0.589,0.541,��,3.4,��
2023/08/29,21:40,0.554,0.840,0.514,1.046,0.760,0.329,0.590,0.543,��,2.3,��
2023/08/29,21:50,0.554,0.841,0.513,1.045,0.760,0.328,0.589,0.541,��,1.7,��
2023/08/29,22:00,0.554,0.840,0.512,1.045,0.762,0.329,0.588,0.543,��,1.5,��
2023/08/29,22:10,0.553,0.839,0.513,1.046,0.760,0.328,0.589,0.542,-,CALM,��
2023/08/29,22:20,0.554,0.840,0.513,1.048,0.760,0.330,0.587,0.543,-,CALM,��
2023/08/29,22:30,0.554,0.840,0.514,1.046,0.761,0.331,0.589,0.543,��,1.4,��
2023/08/29,22:40,0.554,0.840,0.512,1.046,0.759,0.329,0.588,0.544,�쐼,0.9,��
2023/08/29,22:50,0.553,0.841,0.512,1.047,0.761,0.329,0.587,0.542,���k��,1.2,��
2023/08/29,23:00,0.554,0.840,0.513,1.046,0.762,0.329,0.590,0.542,���쐼,0.8,��
2023/08/29,23:10,0.556,0.841,0.513,1.046,0.760,0.331,0.588,0.542,���k��,0.9,��
2023/08/29,23:20,0.555,0.840,0.511,1.047,0.760,0.329,0.589,0.543,���k��,0.6,��
2023/08/29,23:30,0.553,0.842,0.513,1.045,0.762,0.330,0.589,0.543,-,CALM,��
2023/08/29,23:40,0.554,0.841,0.512,1.048,0.761,0.330,0.588,0.543,�k��,1.1,��
2023/08/29,23:50,0.555,0.840,0.513,1.047,0.762,0.332,0.590,0.543,�k��,1.5,��
